SCP
0 0 0 0 0 0 0 0 0 0 0 0 0 0 0 0 0 0 0 0 0 0 0 0 0 0 0 0 0 0 0 0 0 0 0 0 0 0 0 0 0 0 0
0 0 0 0 0 0 0 0 0 0 0 0 0 0 0 0 0 0 0 0 0 0 0 0 0 0 0 0 0 0 0 0 0 0 0 0 0 0 0 0 0 0 0
0 0 0 0 0 0 0 0 0 0 0 0 0 0 0 0 0 0 0 0 0 0 0 0 0 0 0 0 0 0 0 0 0 0 0 0 0 0 0 0 0 0 0
0 0 0 0 0 0 0 0 0 0 0 0 0 0 0 0 0 0 0 0 0 0 0 0 0 0 0 0 0 0 0 0 0 0 0 0 0 0 0 0 0 0 0
0 0 0 0 0 0 0 0 0 0 0 0 0 0 0 0 0 0 0 0 0 0 0 0 0 0 0 0 0 0 0 0 0 0 0 0 0 0 0 0 0 0 0
0 0 0 0 0 0 0 0 0 0 0 0 0 0 0 0 0 0 0 0 0 0 0 0 0 0 0 0 0 0 0 0 0 0 0 0 0 0 0 0 0 0 0
0 0 0 0 0 0 0 0 0 0 0 0 0 0 0 0 0 0 0 0 0 0 0 0 0 0 0 0 0 0 0 0 0 -0 0 0 0 0 0 0 0 0 0
0 0 0 0 0 0 0 0 0 0 0 0 0 0 0 0 0 0 0 0 0 0 0 0 0 0 0 0 0 0 0 0 0 -0 -0 -0 0 0 0 0 0 0 0
0 0 0 0 0 0 0 0 0 0 0 0 0 0 0 0 0 0 0 0 0 0 0 0 0 0 0 0 0 0 0 0 0 0 0 0 0 0 0 -0 0 0 0
0 0 0 0 0 0 0 0 0 0 0 0 0 0 0 0 0 0 0 0 0 0 0 0 0 0 0 0 0 0 0 0 0 0 0 0 0 0 0 0 0 0 0
0 0 0 0 0 0 0 0 0 0 0 0 0 0 0 0 0 0 0 0 0 0 0 0 0 0 0 0 0 0 0 0 0 0 0 0 0 0 0 0 0 0 0
0 0 0 0 0 0 0 0 0 0 0 0 0 0 0 0 0 0 0 0 0 0 0 0 0 0 0 0 0 0 0 0 0 0 0 0 0 0 0 0 0 0 0
0 0 0 0 0 0 0 0 0 0 0 0 0 0 0 0 0 0 0 0 0 0 0 0 0 0 0 0 0 0 0 0 0 0 0 0 0 0 0 0 0 0 0
0 0 0 0 0 0 0 0 0 0 0 0 0 0 0 0 0 0 0 0 0 0 0 0 0 0 0 0 0 0 0 0 0 0 0 0 0 0 0 0 0 0 0
0 0 0 0 0 0 0 0 0 0 0 0 0 0 0 0 0 0 0 0 0 0 0 0 0 0 0 0 0 0 0 0 0 0 0 0 0 0 0 0 0 0 0
0 0 0 0 0 0 0 0 0 0 0 0 0 0 0 0 0 0 0 0 0 0 0 0 0 0 0 0 0 0 0 0 0 0 0 0 0 0 0 0 0 0 0
0 0 0 0 0 0 0 0 0 0 0 0 0 0 0 0 0 0 0 0 0 0 0 0 0 0 0 0 0 0 0 0 0 0 0 0 0 0 0 0 0 0 0
0 0 0 0 0 0 0 0 0 0 0 0 0 0 0 0 0 0 0 0 0 0 0 0 0 0 0 0 0 0 0 0 0 0 0 0 0 0 0 0 0 0 0
0 0 0 0 0 0 0 0 0 0 0 0 0 0 0 0 0 0 0 0 0 0 0 0 0 0 0 0 0 0 0 0 0 0 0 0 0 0 0 0 0 0 0
0 0 0 0 0 0 0 0 0 0 0 0 0 0 0 0 0 0 0 0 0 0 0 0 0 0 0 0 0 0 0 0 0 0 0 0 0 0 0 0 0 0 0
0 0 0 0 0 0 0 0 0 0 0 0 0 0 0 0 0 0 0 0 0 0 0 0 0 0 0 0 0 0 0 0 0 0 0 0 0 0 0 0 0 0 0
0 0 0 0 0 0 0 0 0 0 0 0 0 0 0 0 0 0 0 0 0 0 0 0 0 0 0 0 0 0 0 0 0 0 0 0 0 0 0 0 0 0 0
0 0 0 0 0 0 0 0 0 0 0 0 0 0 0 0 0 0 0 0 0 0 0 0 0 0 0 0 0 0 0 0 0 0 0 0 0 0 0 0 0 0 0
0 0 0 0 0 0 0 0 0 0 0 0 0 0 0 0 0 0 0 0 0 0 0 0 0 0 0 0 0 0 0 0 0 0 0 0 0 0 0 0 0 0 0
0 0 0 0 0 0 0 0 0 0 0 0 0 0 0 0 0 0 0 0 0 0 0 0 0 0 0 0 0 0 0 0 0 0 0 0 0 0 0 0 0 0 0
0 0 0 0 0 0 0 0 0 0 0 0 0 0 0 0 0 0 0 0 0 0 0 0 0 0 0 0 0 0 0 0 0 0 0 0 0 0 0 0 0 0 0
Wind_Speed_500mb
5 3 1 1 0 2 4 5 4 4 3 2 3 2 4 7 12 14 15 17 18 19 20 22 22 22 21 19 19 20 21 20 19 17 17 16 20 21 23 21 20 21 24
12 11 9 7 5 4 5 6 6 6 6 7 7 6 7 11 16 17 21 23 25 26 26 27 29 30 30 28 27 26 25 26 24 21 21 24 24 22 29 28 32 29 28
22 20 17 14 12 10 9 9 8 10 10 11 11 11 13 16 20 25 27 29 31 34 35 36 36 36 35 33 31 33 34 32 34 33 29 26 28 30 32 34 31 37 36
29 29 24 20 18 17 16 15 15 13 13 13 15 17 20 25 28 31 34 38 41 42 42 42 44 44 43 39 37 37 41 43 44 41 46 44 35 37 39 39 42 40 44
31 30 30 26 26 25 24 22 22 21 21 21 22 24 28 34 41 42 43 46 49 51 51 50 48 49 46 44 42 41 43 46 53 52 52 54 56 53 48 43 47 47 49
36 35 34 33 33 32 29 28 27 28 28 31 36 35 38 46 49 50 48 48 51 47 49 47 45 47 46 46 48 45 46 48 55 58 66 65 66 70 63 59 55 54 54
44 40 36 35 36 36 32 29 31 33 33 39 44 45 46 49 54 52 44 37 39 38 39 40 46 42 44 44 46 51 51 55 55 58 65 64 71 80 82 76 74 73 71
48 47 44 41 40 38 36 33 31 29 34 36 41 47 46 55 49 29 42 42 38 37 39 40 42 45 44 45 50 53 59 59 59 61 62 65 69 70 72 90 84 86 83
47 46 44 42 44 46 44 40 38 41 39 41 45 34 19 20 51 60 49 49 38 41 42 44 44 45 47 51 55 56 60 60 61 65 70 70 72 74 77 77 77 86 100
48 47 48 48 48 50 50 48 44 43 41 44 46 43 44 45 47 34 63 53 47 46 48 54 54 47 50 51 55 60 61 61 64 70 75 76 79 80 82 84 85 86 83
45 46 48 47 49 49 50 50 50 45 39 42 40 45 48 46 38 49 51 60 68 57 53 54 50 50 51 50 51 50 52 54 55 58 61 62 64 68 75 78 81 83 88
35 35 38 40 42 45 47 45 43 45 37 39 43 45 47 37 42 49 51 62 66 70 66 60 58 53 52 53 48 48 46 47 47 51 54 59 64 68 71 74 77 81 85
30 27 29 30 31 31 34 35 35 36 36 39 35 44 34 43 43 48 52 59 63 70 73 61 59 60 56 50 50 48 48 49 56 55 58 65 65 68 71 74 76 78 84
31 30 29 29 27 27 27 29 31 32 35 36 39 40 46 44 43 43 45 51 66 65 63 58 67 61 52 59 63 60 61 62 63 61 65 65 63 67 71 76 78 80 82
33 32 31 40 25 27 26 30 27 25 32 36 35 40 41 40 41 41 42 41 45 59 66 57 55 59 68 67 65 68 69 68 65 67 67 62 65 73 75 79 82 84 85
30 31 32 30 29 29 28 28 29 29 30 30 31 32 34 35 37 39 41 44 45 49 64 66 71 70 69 70 70 69 72 76 76 71 72 71 75 77 81 81 83 83 86
25 25 24 22 24 24 23 22 21 22 22 23 26 28 30 34 36 40 42 44 49 52 67 84 78 79 76 77 74 73 75 76 77 77 78 77 75 75 77 80 84 87 90
24 23 21 18 17 15 14 14 16 18 20 22 26 30 34 37 40 44 47 50 54 56 65 84 85 86 84 80 82 82 81 76 77 77 78 77 78 80 73 73 78 84 90
25 21 18 15 13 11 12 14 15 18 22 27 31 35 39 43 45 49 52 55 57 61 64 75 90 87 88 85 88 87 87 88 80 82 83 82 85 79 74 72 66 71 76
21 18 14 11 10 11 12 15 19 23 28 32 35 39 42 46 50 53 57 59 62 66 70 76 84 89 86 83 79 88 98 89 92 86 87 73 67 61 72 77 79 73 72
17 14 11 11 11 13 16 21 25 30 33 35 39 44 48 52 55 57 61 61 61 64 67 71 77 82 84 85 77 80 83 91 94 78 71 72 78 91 85 84 78 76 73
17 12 9 10 15 19 25 30 34 37 41 45 46 48 51 54 55 56 56 56 57 58 61 63 70 74 79 73 73 72 75 84 89 82 78 108 83 87 84 76 73 65 64
10 9 11 15 21 26 29 33 35 39 42 46 50 52 51 50 51 53 54 53 53 53 54 55 65 63 69 64 66 76 78 72 87 96 78 94 81 89 78 68 66 63 66
10 11 15 20 25 29 32 36 40 44 45 47 49 50 50 50 50 53 56 57 56 56 54 54 57 63 60 63 65 71 80 78 78 79 66 84 87 84 83 71 60 55 58
11 14 19 25 29 32 35 39 44 46 48 48 48 48 51 52 54 56 55 61 64 64 59 55 53 53 59 59 48 50 58 63 82 84 71 62 76 87 79 65 48 61 69
16 23 29 29 30 34 36 37 38 40 41 44 47 51 53 56 57 56 55 58 65 65 60 61 60 58 52 48 39 37 50 64 70 77 51 71 73 68 66 45 68 67 62
Wind_Direction_500mb
215 228 256 114 159 218 221 224 241 257 253 260 253 234 250 298 326 329 335 342 343 350 347 344 342 341 337 334 331 331 327 326 320 301 286 271 248 220 236 235 226 227 224
233 238 245 253 265 262 240 244 251 255 252 259 254 247 273 296 312 318 321 322 325 330 329 325 325 324 322 320 317 313 307 308 308 301 288 287 270 254 243 235 234 235 229
240 239 241 244 250 261 265 263 265 262 262 260 259 264 277 290 297 300 305 309 313 317 317 315 312 310 308 305 298 301 304 301 301 300 290 277 274 262 249 255 244 234 235
241 245 248 249 250 253 258 261 266 269 268 268 267 275 283 288 290 293 299 305 307 307 305 305 303 301 301 299 289 292 292 295 291 291 304 297 288 267 262 248 247 247 235
244 244 248 251 252 253 255 256 258 264 269 275 279 284 291 295 292 291 295 299 301 300 301 300 301 295 293 293 290 288 284 289 282 280 284 285 288 293 282 262 260 256 245
240 243 246 247 251 253 253 256 261 266 272 278 275 278 286 283 289 297 303 300 296 290 294 292 294 294 291 290 289 287 287 288 287 280 269 270 275 280 275 274 264 260 265
240 243 247 249 251 255 260 263 263 264 268 266 278 282 287 294 292 295 309 304 307 300 294 298 294 291 295 290 290 293 289 289 286 286 279 276 280 272 261 266 269 268 259
243 243 248 254 259 263 266 270 276 278 275 278 281 290 292 302 308 302 300 304 309 303 303 306 304 302 298 292 295 293 293 289 287 284 280 275 273 277 279 253 259 257 250
243 247 247 249 256 262 264 267 267 272 278 280 290 293 291 284 306 302 308 305 310 309 311 305 301 297 294 291 289 287 286 288 285 284 284 282 277 273 275 276 275 262 249
248 248 249 253 251 256 261 262 261 272 266 282 277 285 294 290 295 295 308 306 304 299 300 300 300 295 291 291 287 285 285 283 281 277 280 280 278 277 275 274 275 270 272
247 247 250 253 252 251 251 254 263 262 270 277 282 284 288 286 298 283 290 300 302 299 299 296 299 302 302 302 304 301 290 286 283 282 281 280 281 281 280 278 275 273 269
245 247 251 253 253 252 252 253 256 265 268 273 273 288 277 287 296 297 297 300 299 301 306 308 311 312 312 309 306 306 301 298 289 292 280 282 285 283 281 281 280 276 273
241 246 249 255 257 255 249 250 254 257 265 267 282 285 289 289 289 290 293 295 299 301 304 307 309 311 314 313 307 304 297 295 292 287 284 288 284 286 286 284 284 282 276
235 236 244 246 242 245 246 249 255 260 259 276 279 283 283 282 281 282 287 293 299 299 300 304 308 313 311 308 308 304 303 298 299 294 292 292 286 288 287 286 284 282 281
236 237 241 236 240 248 252 248 263 253 273 277 272 273 279 285 285 286 286 286 290 298 302 300 305 305 305 308 306 306 304 303 296 293 293 291 287 286 287 284 282 281 279
229 230 236 252 250 248 247 256 258 264 269 275 282 288 292 296 300 301 300 298 294 287 289 294 300 304 305 308 309 308 306 307 305 297 296 289 284 283 282 283 284 283 281
220 225 226 227 233 236 238 244 255 266 275 283 288 293 297 300 303 303 303 302 303 302 296 302 306 310 309 309 309 307 306 305 302 300 300 296 295 290 283 280 281 282 283
205 204 201 204 211 222 236 251 265 275 283 292 299 300 302 304 306 306 307 306 305 304 301 303 307 310 311 312 312 310 310 307 304 304 303 302 300 298 291 282 280 279 279
183 185 187 194 206 223 249 267 281 294 300 302 306 308 309 310 310 307 307 307 306 305 304 304 307 310 312 313 312 310 310 308 309 308 306 305 309 306 302 301 293 289 285
179 183 188 206 232 254 273 289 298 305 310 309 309 309 309 309 310 309 308 309 310 310 310 309 308 309 311 315 314 314 313 312 313 315 314 315 313 306 302 303 304 304 294
184 191 205 227 256 280 293 302 309 310 310 310 311 312 311 311 311 312 312 312 311 310 309 309 308 310 313 317 319 317 315 318 318 323 318 316 309 308 309 309 310 305 300
193 204 232 272 290 302 312 314 314 315 315 313 313 313 315 316 315 312 309 309 311 312 311 309 309 309 310 312 317 318 318 319 313 310 310 306 316 316 316 312 312 310 302
211 243 276 300 310 314 314 312 312 311 312 315 317 316 316 316 315 314 312 311 311 311 310 311 309 310 310 318 319 317 315 305 302 303 314 312 316 314 321 320 318 314 308
242 274 297 306 311 310 310 309 310 312 315 317 318 318 319 321 321 319 318 318 319 319 320 316 310 308 311 311 303 298 298 303 304 311 317 308 318 317 322 320 322 317 312
278 299 310 307 304 308 311 313 317 319 319 319 320 319 321 323 324 325 321 321 319 320 320 314 311 307 302 304 308 307 308 309 305 309 315 310 312 317 321 326 332 324 315
294 304 298 302 305 309 313 315 319 320 320 324 327 327 327 324 321 320 320 319 316 317 317 317 312 312 314 317 317 305 298 297 302 311 316 312 317 326 324 327 330 333 326
Wind_Speed_850mb
5 3 1 1 0 2 4 5 4 4 3 2 3 2 4 7 12 14 15 17 18 19 20 22 22 22 21 19 19 20 21 20 19 17 17 16 20 21 23 21 20 21 24
12 11 9 7 5 4 5 6 6 6 6 7 7 6 7 11 16 17 21 23 25 26 26 27 29 30 30 28 27 26 25 26 24 21 21 24 24 22 29 28 32 29 28
22 20 17 14 12 10 9 9 8 10 10 11 11 11 13 16 20 25 27 29 31 34 35 36 36 36 35 33 31 33 34 32 34 33 29 26 28 30 32 34 31 37 36
29 29 24 20 18 17 16 15 15 13 13 13 15 17 20 25 28 31 34 38 41 42 42 42 44 44 43 39 37 37 41 43 44 41 46 44 35 37 39 39 42 40 44
31 30 30 26 26 25 24 22 22 21 21 21 22 24 28 34 41 42 43 46 49 51 51 50 48 49 46 44 42 41 43 46 53 52 52 54 56 53 48 43 47 47 49
36 35 34 33 33 32 29 28 27 28 28 31 36 35 38 46 49 50 48 48 51 47 49 47 45 47 46 46 48 45 46 48 55 58 66 65 66 70 63 59 55 54 54
44 40 36 35 36 36 32 29 31 33 33 39 44 45 46 49 54 52 44 37 39 38 39 40 46 42 44 44 46 51 51 55 55 58 65 64 71 80 82 76 74 73 71
48 47 44 41 40 38 36 33 31 29 34 36 41 47 46 55 49 29 42 42 38 37 39 40 42 45 44 45 50 53 59 59 59 61 62 65 69 70 72 90 84 86 83
47 46 44 42 44 46 44 40 38 41 39 41 45 34 19 20 51 60 49 49 38 41 42 44 44 45 47 51 55 56 60 60 61 65 70 70 72 74 77 77 77 86 100
48 47 48 48 48 50 50 48 44 43 41 44 46 43 44 45 47 34 63 53 47 46 48 54 54 47 50 51 55 60 61 61 64 70 75 76 79 80 82 84 85 86 83
45 46 48 47 49 49 50 50 50 45 39 42 40 45 48 46 38 49 51 60 68 57 53 54 50 50 51 50 51 50 52 54 55 58 61 62 64 68 75 78 81 83 88
35 35 38 40 42 45 47 45 43 45 37 39 43 45 47 37 42 49 51 62 66 70 66 60 58 53 52 53 48 48 46 47 47 51 54 59 64 68 71 74 77 81 85
30 27 29 30 31 31 34 35 35 36 36 39 35 44 34 43 43 48 52 59 63 70 73 61 59 60 56 50 50 48 48 49 56 55 58 65 65 68 71 74 76 78 84
31 30 29 29 27 27 27 29 31 32 35 36 39 40 46 44 43 43 45 51 66 65 63 58 67 61 52 59 63 60 61 62 63 61 65 65 63 67 71 76 78 80 82
33 32 31 40 25 27 26 30 27 25 32 36 35 40 41 40 41 41 42 41 45 59 66 57 55 59 68 67 65 68 69 68 65 67 67 62 65 73 75 79 82 84 85
30 31 32 30 29 29 28 28 29 29 30 30 31 32 34 35 37 39 41 44 45 49 64 66 71 70 69 70 70 69 72 76 76 71 72 71 75 77 81 81 83 83 86
25 25 24 22 24 24 23 22 21 22 22 23 26 28 30 34 36 40 42 44 49 52 67 84 78 79 76 77 74 73 75 76 77 77 78 77 75 75 77 80 84 87 90
24 23 21 18 17 15 14 14 16 18 20 22 26 30 34 37 40 44 47 50 54 56 65 84 85 86 84 80 82 82 81 76 77 77 78 77 78 80 73 73 78 84 90
25 21 18 15 13 11 12 14 15 18 22 27 31 35 39 43 45 49 52 55 57 61 64 75 90 87 88 85 88 87 87 88 80 82 83 82 85 79 74 72 66 71 76
21 18 14 11 10 11 12 15 19 23 28 32 35 39 42 46 50 53 57 59 62 66 70 76 84 89 86 83 79 88 98 89 92 86 87 73 67 61 72 77 79 73 72
17 14 11 11 11 13 16 21 25 30 33 35 39 44 48 52 55 57 61 61 61 64 67 71 77 82 84 85 77 80 83 91 94 78 71 72 78 91 85 84 78 76 73
17 12 9 10 15 19 25 30 34 37 41 45 46 48 51 54 55 56 56 56 57 58 61 63 70 74 79 73 73 72 75 84 89 82 78 108 83 87 84 76 73 65 64
10 9 11 15 21 26 29 33 35 39 42 46 50 52 51 50 51 53 54 53 53 53 54 55 65 63 69 64 66 76 78 72 87 96 78 94 81 89 78 68 66 63 66
10 11 15 20 25 29 32 36 40 44 45 47 49 50 50 50 50 53 56 57 56 56 54 54 57 63 60 63 65 71 80 78 78 79 66 84 87 84 83 71 60 55 58
11 14 19 25 29 32 35 39 44 46 48 48 48 48 51 52 54 56 55 61 64 64 59 55 53 53 59 59 48 50 58 63 82 84 71 62 76 87 79 65 48 61 69
16 23 29 29 30 34 36 37 38 40 41 44 47 51 53 56 57 56 55 58 65 65 60 61 60 58 52 48 39 37 50 64 70 77 51 71 73 68 66 45 68 67 62
Wind_Direction_850mb
215 228 256 114 159 218 221 224 241 257 253 260 253 234 250 298 326 329 335 342 343 350 347 344 342 341 337 334 331 331 327 326 320 301 286 271 248 220 236 235 226 227 224
233 238 245 253 265 262 240 244 251 255 252 259 254 247 273 296 312 318 321 322 325 330 329 325 325 324 322 320 317 313 307 308 308 301 288 287 270 254 243 235 234 235 229
240 239 241 244 250 261 265 263 265 262 262 260 259 264 277 290 297 300 305 309 313 317 317 315 312 310 308 305 298 301 304 301 301 300 290 277 274 262 249 255 244 234 235
241 245 248 249 250 253 258 261 266 269 268 268 267 275 283 288 290 293 299 305 307 307 305 305 303 301 301 299 289 292 292 295 291 291 304 297 288 267 262 248 247 247 235
244 244 248 251 252 253 255 256 258 264 269 275 279 284 291 295 292 291 295 299 301 300 301 300 301 295 293 293 290 288 284 289 282 280 284 285 288 293 282 262 260 256 245
240 243 246 247 251 253 253 256 261 266 272 278 275 278 286 283 289 297 303 300 296 290 294 292 294 294 291 290 289 287 287 288 287 280 269 270 275 280 275 274 264 260 265
240 243 247 249 251 255 260 263 263 264 268 266 278 282 287 294 292 295 309 304 307 300 294 298 294 291 295 290 290 293 289 289 286 286 279 276 280 272 261 266 269 268 259
243 243 248 254 259 263 266 270 276 278 275 278 281 290 292 302 308 302 300 304 309 303 303 306 304 302 298 292 295 293 293 289 287 284 280 275 273 277 279 253 259 257 250
243 247 247 249 256 262 264 267 267 272 278 280 290 293 291 284 306 302 308 305 310 309 311 305 301 297 294 291 289 287 286 288 285 284 284 282 277 273 275 276 275 262 249
248 248 249 253 251 256 261 262 261 272 266 282 277 285 294 290 295 295 308 306 304 299 300 300 300 295 291 291 287 285 285 283 281 277 280 280 278 277 275 274 275 270 272
247 247 250 253 252 251 251 254 263 262 270 277 282 284 288 286 298 283 290 300 302 299 299 296 299 302 302 302 304 301 290 286 283 282 281 280 281 281 280 278 275 273 269
245 247 251 253 253 252 252 253 256 265 268 273 273 288 277 287 296 297 297 300 299 301 306 308 311 312 312 309 306 306 301 298 289 292 280 282 285 283 281 281 280 276 273
241 246 249 255 257 255 249 250 254 257 265 267 282 285 289 289 289 290 293 295 299 301 304 307 309 311 314 313 307 304 297 295 292 287 284 288 284 286 286 284 284 282 276
235 236 244 246 242 245 246 249 255 260 259 276 279 283 283 282 281 282 287 293 299 299 300 304 308 313 311 308 308 304 303 298 299 294 292 292 286 288 287 286 284 282 281
236 237 241 236 240 248 252 248 263 253 273 277 272 273 279 285 285 286 286 286 290 298 302 300 305 305 305 308 306 306 304 303 296 293 293 291 287 286 287 284 282 281 279
229 230 236 252 250 248 247 256 258 264 269 275 282 288 292 296 300 301 300 298 294 287 289 294 300 304 305 308 309 308 306 307 305 297 296 289 284 283 282 283 284 283 281
220 225 226 227 233 236 238 244 255 266 275 283 288 293 297 300 303 303 303 302 303 302 296 302 306 310 309 309 309 307 306 305 302 300 300 296 295 290 283 280 281 282 283
205 204 201 204 211 222 236 251 265 275 283 292 299 300 302 304 306 306 307 306 305 304 301 303 307 310 311 312 312 310 310 307 304 304 303 302 300 298 291 282 280 279 279
183 185 187 194 206 223 249 267 281 294 300 302 306 308 309 310 310 307 307 307 306 305 304 304 307 310 312 313 312 310 310 308 309 308 306 305 309 306 302 301 293 289 285
179 183 188 206 232 254 273 289 298 305 310 309 309 309 309 309 310 309 308 309 310 310 310 309 308 309 311 315 314 314 313 312 313 315 314 315 313 306 302 303 304 304 294
184 191 205 227 256 280 293 302 309 310 310 310 311 312 311 311 311 312 312 312 311 310 309 309 308 310 313 317 319 317 315 318 318 323 318 316 309 308 309 309 310 305 300
193 204 232 272 290 302 312 314 314 315 315 313 313 313 315 316 315 312 309 309 311 312 311 309 309 309 310 312 317 318 318 319 313 310 310 306 316 316 316 312 312 310 302
211 243 276 300 310 314 314 312 312 311 312 315 317 316 316 316 315 314 312 311 311 311 310 311 309 310 310 318 319 317 315 305 302 303 314 312 316 314 321 320 318 314 308
242 274 297 306 311 310 310 309 310 312 315 317 318 318 319 321 321 319 318 318 319 319 320 316 310 308 311 311 303 298 298 303 304 311 317 308 318 317 322 320 322 317 312
278 299 310 307 304 308 311 313 317 319 319 319 320 319 321 323 324 325 321 321 319 320 320 314 311 307 302 304 308 307 308 309 305 309 315 310 312 317 321 326 332 324 315
294 304 298 302 305 309 313 315 319 320 320 324 327 327 327 324 321 320 320 319 316 317 317 317 312 312 314 317 317 305 298 297 302 311 316 312 317 326 324 327 330 333 326